Regional Weather Roundup
Issued by NWS

Home | Current Version | Previous Version | Text Only | Print | Product List | Glossary On
Versions: 1 2 3 4 5 6 7 8 9 10 11 12 13 14 15 16 17 18 19 20 21 22 23 24 25 26 27 28 29 30 31 32 33 34 35 36 37 38 39 40 41 42 43 44 45 46 47 48 49 50
758
ASUS43 KDTX 241610
RWRMI
MICHIGAN HOURLY REGIONAL WEATHER ROUNDUP
NATIONAL WEATHER SERVICE DETROIT/PONTIAC MI
1100 AM EST TUE JAN 24 2017

NOTE: "FAIR" INDICATES FEW OR NO CLOUDS BELOW 12,000 FEET WITH NO
SIGNIFICANT WEATHER AND/OR OBSTRUCTION TO VISIBILITY.

MIZ047>049-052>055-059>063-066>070-074>076-081>083-241700-
SOUTHEAST LOWER MICHIGAN

CITY           SKY/WX    TMP DP  RH WIND       PRES   REMARKS
ADRIAN         CLOUDY    40  38  93 NW10      29.82R WCI  33
ALMA           CLOUDY    37  37  99 W10G18    29.81R WCI  30
ANN ARBOR      CLOUDY    39  38  96 W8        29.78R WCI  33
BAD AXE        LGT SNOW  35  35 100 NW3       29.77R
CARO           LGT RAIN  38  37  95 W5        29.76R WCI  34
DETROIT CITY   LGT RAIN  39  38  96 NW8       29.77R WCI  33
DETROIT        CLOUDY    40  37  89 NW10      29.78S WCI  33
FLINT          CLOUDY    37  36  96 NW10      29.78S FOG     WCI  30
GROSSE ILE     CLOUDY    40  37  92 NW9       29.76S WCI  33
HILLSDALE        N/A     36  36 100 W13       29.80R WCI  27
HOWELL         CLOUDY    38  37  97 W10       29.78S FOG     WCI  31

CITY           SKY/WX    TMP DP  RH WIND       PRES   REMARKS
JACKSON        CLOUDY    39  36  89 NW12      29.81R WCI  32
LAMBERTVILLE   CLOUDY    42  39  89 W7        29.80R
LANSING        CLOUDY    38  35  89 NW10      29.82R WCI  31
LAPEER         DRIZZLE   37  37 100 NW5       29.76S WCI  33
MASON          CLOUDY    38  37  99 W9        29.81R WCI  31
MONROE         CLOUDY    40  39  99 NW8       29.78R FOG     WCI  34
MT. CLEMENS    LGT RAIN  39  39 100 NW5       29.75R FOG
PONTIAC        DRIZZLE   36  34  92 NW9       29.75R WCI  29
PORT HOPE        N/A     36  35  96 NW3       29.75R
PORT HURON     LGT RAIN  36  36 100 NW3       29.77R
TRI CITIES     CLOUDY    38  37  97 NW8       29.79R WCI  32
MIDLAND        CLOUDY    39  38  94 W6        29.78R WCI  35
TROY           CLOUDY    39  36  90 W7        29.79R WCI  34
SAGINAW HB     CLOUDY    37  36  93 NW8       29.78R WCI  31
$$
MIZ043>046-050>051-056>058-064>065-071>073-077>080-241700-
SOUTHWEST LOWER MICHIGAN

CITY           SKY/WX    TMP DP  RH WIND       PRES   REMARKS
BATTLE CREEK   CLOUDY    38  36  92 W12       29.84R WCI  30
BENTON HARBOR  CLOUDY    39  35  86 W8        29.87F WCI  33
BIG RAPIDS     CLOUDY    36  34  92 NW8       29.81R WCI  29
COLDWATER      CLOUDY    39  37  93 W12       29.84R WCI  32
FREMONT        CLOUDY    37  35  90 W5        29.84R WCI  34
HOLLAND        CLOUDY    39  36  89 W7        29.86S WCI  34
GRAND RAPIDS   CLOUDY    38  34  85 NW13      29.84R WCI  30
IONIA          CLOUDY    37  35  95 W9        29.82R WCI  30
KALAMAZOO      DRIZZLE   39  33  79 NW12      29.85R WCI  32
LUDINGTON      CLOUDY    37  36  94 NW5       29.84R WCI  34
MARSHALL       CLOUDY    39  37  93 W13       29.82R WCI  32
MOUNT PLEASANT CLOUDY    37  37  99 W6        29.79R WCI  33
MUSKEGON       DRIZZLE   39  37  92 NW7       29.86R WCI  34
SOUTH HAVEN    CLOUDY    39  37  94 NW8       29.86F FOG     WCI  33
$$
MIZ016>042-241700-
NORTHERN LOWER MICHIGAN

CITY           SKY/WX    TMP DP  RH WIND       PRES   REMARKS
ALPENA         CLOUDY    36  34  92 N3        29.79R FOG
BEAVER ISLAND  FOG       35  35 100 CALM      29.81R VSB 1/2
BELLAIRE       CLOUDY    35  35 100 W6        29.81R WCI  30
CADILLAC       CLOUDY    36  34  92 NW9       29.78R WCI  29
CHARLEVOIX     FOG       35  35 100 NW6       29.83R VSB 3/4 WCI  30
FRANKFORT      CLOUDY    38  36  93 NW6       29.82S WCI  34
GAYLORD        FOG       35  32  88 W5        29.76R VSB 1/2 WCI  31
GRAYLING       FOG       35  35  98 W5        29.78R VSB 3/4 WCI  31
HARBOR SPRINGS FOG       34  34 100 CALM      29.79R VSB 1/4
HOUGHTON LAKE  CLOUDY    35  34  96 NW10      29.77S WCI  27
MANISTEE       CLOUDY    38  35  89 NW7       29.83R WCI  33
OSCODA         MIX PCPN  37  37  98 N5        29.77R WCI  33
PELLSTON       CLOUDY    34  33  96 CALM      29.79S FOG
ROGERS CITY    MIX PCPN  35  34  96 E3        29.80R
TRAVERSE CITY  FOG       37  36  96 W6        29.80S VSB 1   WCI  32
$$
MIZ007>008-015-241700-
EASTERN UPPER MICHIGAN

CITY           SKY/WX    TMP DP  RH WIND       PRES   REMARKS
KINROSS        LGT RAIN  34  33  96 CALM      29.80R
MACKINAC ISLAN FOG       33  33 100 E6        29.78S VSB 3/4 WCI  27
NEWBERRY       FOG       32  31  98 N3        29.80S VSB 1/2
S. S. MARIE    CLOUDY    35  33  92 CALM      29.80R
MUNISING         N/A     35  35 100 NW13      29.82R WCI  26
$$
MIZ004>006-011>014-085-241700-
CENTRAL UPPER MICHIGAN

CITY           SKY/WX    TMP DP  RH WIND       PRES   REMARKS
MANISTIQUE     CLOUDY    33  33  98 NW6       29.81R WCI  28
ESCANABA       LGT RAIN  36  35  96 NW7       29.84R WCI  30
SAWYER-GWINN   CLOUDY    34  32  93 N8        29.82R WCI  27
$$
MIZ001>003-009>011-084-241700-
WESTERN UPPER MICHIGAN

CITY           SKY/WX    TMP DP  RH WIND       PRES   REMARKS
IRON MOUNTAIN  CLOUDY    35  32  88 NW6       29.82R WCI  30
HOUGHTON       CLOUDY    35  33  92 NW6       29.82S WCI  30
COPPER HARBOR    N/A    N/A N/A N/A MISG      29.84R
IRONWOOD       CLOUDY    33  31  92 W6        29.86S WCI  28
$$

ABBREVIATIONS USED IN REMARKS
   TC - TEMPERATURE IN CELSIUS
  WCI - WIND CHILL INDEX
   HX - HEAT INDEX
  VSB - VISIBILITY





USA.gov is the U.S. government's official web portal to all federal, state and local government web resources and services.